User: anonymous   Login
Location: Holbach
(51.5399°N, 10.6036°E)
Time: 20:18:57
(UTC+00:00)
Language:

Cosmos 2034 Rocket - Orbit

View from above orbital plane
View from above orbital plane
View from above satellite
View from above satellite

Ground track
Ground track

The orbit data is extracted from the following two-line orbital elements,

1 20150U 89059B   20331.89547442 +.00000028 +00000-0 +12866-4 0  9998
2 20150 082.9421 240.3089 0029429 010.3075 058.8287 13.75639822573238
Epoch (UTC): 26 November 2020 21:29:28
Eccentricity: 0.0029429
inclination: 82.9421°
perigee height: 958 km
apogee height: 1001 km
right ascension of ascending node: 240.3089°
argument of perigee: 10.3075°
revolutions per day: 13.75639822
mean anomaly at epoch: 58.8287°
orbit number at epoch: 57323

The dashed part of the orbit path shows where the satellite is in the earth's shadow,  

DLR